There are no active watches, warnings or advisories



For GOD so loved the world that HE gave HIS one and only SON, that whoever believes in HIM shall not perish but have eternal life.


Thunder radar more information blitzortung!


Rain radar more information rain snow radar



Select another period ( hide this area )

Units Period Custom range Directly to
Metric English Both
Daily Weekly Monthly Yearly
use both date-selectors for a custom range
previous Day
With this date

WeatherUnderground graphs for this period ( click here )


Daily Summary for Sunday Aug 18 2019
Time Temp. ( °C ) Dew pt. ( °C ) Wind ( km/h ) from Gust ( km/h ) Pressure ( hPa ) Humid.( % ) Rainrate ( cm ) Solar ( W/m2 )
High27,8 22,7 16,3 WNW ( 151/562 ) 22,2 1016,1 97 16,26 849
Average22,4 19,9 3,4 Calm #76/264 6,4 1012,4 86 17,78 353 #152/264
Low17,4 16,8 -   0,0 1010,0 67 -  
Daily Tabular details for Sunday Aug 18 2019
Time Temp. ( °C ) Dew pt. ( °C ) Wind ( km/h ) from Gust ( km/h ) Pressure ( hPa ) Humid.( % ) Rainrate ( cm ) Solar ( W/m2 )
00:00 18,8 18,0   Calm   1013,8 95 - -
00:05 18,7 17,9   Calm   1013,8 95 - -
00:10 18,7 18,0   Calm   1013,8 96 - -
00:15 18,6 17,7   Calm   1014,1 95 - -
00:20 18,2 17,4   Calm   1014,1 95 - -
00:25 18,3 17,4   Calm   1014,1 95 - -
00:30 18,1 17,2   Calm   1014,1 95 - -
00:35 18,1 17,4 0,8 South 1,9 1013,8 96 - -
00:40 18,3 17,6   Calm 1,9 1014,1 96 - -
00:45 18,1 17,4   Calm   1014,1 96 - -
00:50 17,9 17,3   Calm   1014,1 96 - -
00:55 17,9 17,3   Calm   1014,1 96 - -
01:00 17,9 17,3   Calm   1014,1 96 - -
01:05 17,8 17,1   Calm   1013,8 96 - -
01:10 17,7 17,0   Calm   1013,8 96 - -
01:15 17,6 16,9   Calm   1013,8 96 - -
01:20 17,7 17,0   Calm   1013,8 96 - -
01:25 17,6 16,9   Calm   1013,8 96 - -
01:30 17,6 16,9   Calm   1013,8 96 - -
01:35 17,5 16,8   Calm   1013,8 96 - -
01:40 17,4 16,8   Calm   1013,8 96 - -
01:45 17,4 16,8   Calm   1013,8 96 - -
01:50 17,4 16,8   Calm   1013,8 96 - -
01:55 17,5 16,8   Calm   1013,8 96 - -
02:00 17,5 16,8   Calm   1013,8 96 - -
02:05 17,5 16,8   Calm   1013,8 96 - -
02:10 17,4 16,8   Calm   1013,8 96 - -
02:15 17,5 16,8   Calm   1013,8 96 - -
02:20 17,4 16,8   Calm   1013,8 96 - -
02:25 17,5 16,8   Calm   1013,8 96 - -
02:30 17,5 16,8   Calm   1013,8 96 - -
02:35 17,6 16,9   Calm   1013,8 96 - -
02:40 17,6 16,9   Calm   1013,8 96 - -
02:45 17,6 16,9   Calm   1013,8 96 - -
02:50 17,6 16,9   Calm   1013,8 96 - -
02:55 17,6 16,9   Calm   1013,8 96 - -
03:00 17,5 16,8   Calm   1014,1 96 - -
03:05 17,9 17,4 0,8 South 1,9 1014,1 97 - -
03:10 18,5 18,0 2,3 SSE 5,6 1014,1 97 - -
03:15 18,8 18,3 1,8 SSE 5,6 1014,1 97 - -
03:20 18,9 18,4   Calm   1014,1 97 - -
03:25 18,9 18,4 1,1 SSE 3,7 1014,1 97 - -
03:30 18,8 18,3   Calm   1014,1 97 - -
03:35 18,9 18,4   Calm   1014,1 97 - -
03:40 18,7 18,2   Calm   1014,1 97 - -
03:45 18,7 18,1   Calm   1014,1 96 - -
03:50 18,7 18,0 0,3 SSE 1,9 1013,8 96 - -
03:55 18,7 18,0   Calm   1014,1 96 - -
04:00 18,7 18,0   Calm   1013,8 96 - -
04:05 18,8 18,1 1,0 SSE 1,9 1013,8 96 - -
04:10 18,8 18,3 0,8 SSE 3,7 1013,8 97 - -
04:15 18,9 18,4 1,6 SSE 3,7 1013,4 97 - -
04:20 18,9 18,4 1,1 SSE 3,7 1013,8 97 - -
04:25 18,8 18,3   Calm   1013,8 97 - -
04:30 18,8 18,3 0,6 SSE 3,7 1013,8 97 - -
04:35 19,1 18,6 0,3 SSE 1,9 1013,4 97 - -
04:40 19,2 18,7 1,0 SSE 3,7 1013,4 97 - -
04:45 19,2 18,7 0,3 SSE 1,9 1013,4 97 - -
04:50 19,1 18,6   Calm   1013,4 97 - -
04:55 18,9 18,4   Calm   1013,4 97 - -
05:00 18,9 18,4   Calm 1,9 1013,4 97 - -
05:05 18,9 18,4   Calm   1013,4 97 - -
05:10 18,9 18,4   Calm   1013,1 97 - -
05:15 18,9 18,4   Calm   1013,1 97 - -
05:20 18,9 18,3   Calm   1013,4 96 - -
05:25 18,9 18,3   Calm   1013,1 96 - -
05:30 18,9 18,4   Calm   1013,1 97 - -
05:35 18,9 18,4   Calm   1013,1 97 - -
05:40 18,9 18,2   Calm   1013,1 96 - -
05:45 18,8 18,3   Calm   1013,4 97 - -
05:50 18,8 18,3   Calm   1013,4 97 - -
05:55 18,7 18,2   Calm   1013,1 97 - -
06:00 18,8 18,3 5,0 SE 7,4 1013,1 97 - -
06:05 18,8 18,3 0,6 SE 3,7 1013,4 97 - -
06:10 18,9 18,4   Calm   1013,4 97 - -
06:15 18,9 18,3   Calm   1013,8 96 - -
06:20 19,0 18,3   Calm   1013,8 96 - -
06:25 19,1 18,4   Calm   1014,1 96 - -
06:30 19,1 18,4   Calm   1014,1 96 - -
06:35 19,1 18,6 0,2 SE 1,9 1014,4 97 - -
06:40 19,2 18,7 1,1 SE 3,7 1014,4 97 - -
06:45 19,2 18,7   Calm   1014,4 97 0,25 -
06:50 19,3 18,8 1,9 SE 3,7 1014,8 97 0,25 -
06:55 19,3 18,8 2,6 SE 3,7 1014,8 97 0,51 -
07:00 19,3 18,8 0,3 East 1,9 1015,5 97 1,02 -
07:05 19,4 18,9 8,5 WNW 13,0 1016,1 97 3,05 -
07:10 19,6 19,1 8,2 NNW 13,0 1015,8 97 9,91 -
07:15 19,6 19,1 4,7 NNE 8,0 1015,5 97 14,73 -
07:20 19,7 19,2   Calm   1014,1 97 16,00 -
07:25 19,7 19,2 2,4 East 5,6 1014,1 97 16,00 -
07:30 19,7 19,2 1,4 South 3,7 1014,1 97 16,26 5
07:35 19,7 19,2 0,6 South 1,9 1014,1 97 16,26 11
07:40 19,7 19,2   Calm   1014,1 97 16,26 12
07:45 19,6 19,1   Calm   1014,1 97 16,26 14
07:50 19,6 19,1   Calm   1013,8 97 16,26 18
07:55 19,6 19,1   Calm   1013,8 97 16,00 25
08:00 19,6 19,1   Calm   1013,4 97 15,49 40
08:05 19,7 19,2 2,9 SSE 5,6 1013,8 97 13,46 63
08:10 19,7 19,2 6,0 SE 11,1 1013,4 97 6,60 93
08:15 19,7 19,2 7,6 ESE 13,0 1013,4 97 1,78 113
08:20 19,8 19,3 12,2 SSE 18,5 1013,8 97 0,51 123
08:25 19,9 19,4 9,5 SSW 14,8 1013,8 97 0,51 156
08:30 20,2 19,7 5,6 ESE 18,5 1013,4 97 0,25 186
08:35 20,3 19,8 8,4 SSE 11,1 1013,8 97 0,25 181
08:40 20,4 19,9 7,9 SSE 16,7 1013,4 97 0,25 250
08:45 20,5 20,0 7,6 SSE 11,1 1013,8 97 - 132
08:50 20,6 20,1 2,6 South 5,6 1013,4 97 - 132
08:55 20,6 19,9 4,2 South 5,6 1013,8 96 - 236
09:00 20,8 20,2 4,3 SSE 7,4 1013,8 96 - 221
09:05 21,2 20,5 6,9 SSE 14,8 1013,4 96 - 422
09:10 21,4 20,8 4,5 SSE 5,6 1013,4 96 - 383
09:15 21,8 21,1 4,0 SSE 9,3 1013,8 96 - 373
09:20 22,0 21,2 5,5 SSE 7,4 1013,8 95 - 392
09:25 22,3 21,3 5,5 SSE 9,3 1013,8 94 - 352
09:30 22,3 20,9 9,3 SSE 13,0 1013,4 92 - 483
09:35 22,7 21,2 9,8 SSE 14,8 1013,8 91 - 534
09:40 23,2 21,5 5,5 South 9,3 1013,8 90 - 262
09:45 22,8 20,7 7,1 South 13,0 1013,8 88 - 232
09:50 22,8 20,7 5,6 South 9,3 1013,4 88 - 283
09:55 23,1 21,0 5,1 South 13,0 1013,1 88 - 360
10:00 23,8 21,7 8,0 SSW 13,0 1013,1 88 - 696
10:05 23,8 21,1 8,9 ESE 13,0 1012,8 85 - 492
10:10 23,7 21,0 6,1 SSE 9,3 1012,1 85 - 297
10:15 23,6 21,1 4,2 ESE 7,4 1012,1 86 - 248
10:20 23,6 21,3 4,0 SSE 7,4 1012,4 87 - 230
10:25 23,6 21,3 5,6 SSE 9,7 1012,8 87 - 216
10:30 23,6 21,3 11,9 SSE 18,5 1012,8 87 - 218
10:35 23,5 21,0 8,7 South 16,7 1012,8 86 - 236
10:40 23,4 20,8 7,9 South 9,3 1012,8 85 - 257
10:45 23,4 20,7 2,9 South 5,6 1012,8 85 - 283
10:50 23,4 20,7 10,9 SW 18,5 1012,8 85 - 292
10:55 23,3 20,2 9,0 South 13,0 1012,8 83 - 276
11:00 23,3 20,3 6,4 South 9,3 1012,8 83 - 276
11:05 23,4 20,6 2,3 SSW 6,4 1012,8 84 - 281
11:10 23,4 20,4 2,7 SSW 5,6 1012,8 83 - 279
11:15 23,5 20,4 0,2 SSW 1,9 1013,1 83 - 295
11:20 23,7 20,6 3,7 SSW 5,6 1013,4 83 - 366
11:25 24,0 20,9 1,9 West 5,6 1013,4 83 - 371
11:30 24,2 21,2 6,9 SSW 13,0 1013,4 83 - 336
11:35 24,2 20,7 1,9 SW 5,6 1013,4 81 - 373
11:40 24,3 21,1 4,0 South 7,4 1013,4 82 - 422
11:45 24,6 21,1 1,3 SW 3,7 1013,4 81 - 330
11:50 24,6 21,5 1,8 WSW 5,6 1013,8 83 - 288
11:55 24,4 20,9 3,7 SE 7,4 1013,8 81 - 366
12:00 24,6 21,3 4,5 WSW 11,1 1013,8 82 - 432
12:05 24,7 21,4 0,3 SSW 1,9 1013,8 82 - 369
12:10 24,6 20,9 3,7 SSW 7,4 1013,4 80 - 190
12:15 24,3 20,8 4,2 South 5,6 1013,4 81 - 153
12:20 24,1 21,0 3,1 South 7,4 1013,4 83 - 169
12:25 24,0 20,9 2,6 SSW 3,7 1013,4 83 - 179
12:30 24,1 21,2 4,2 SSW 5,6 1013,4 84 - 221
12:35 24,3 21,4 1,1 WSW 3,7 1013,4 84 - 223
12:40 24,3 21,2 1,0 SSW 3,7 1013,1 83 - 244
12:45 24,6 21,7 1,9 South 4,8 1012,8 84 - 371
12:50 24,8 21,6 4,7 South 5,6 1012,4 82 - 490
12:55 25,2 21,7 5,1 SSE 7,4 1012,4 81 - 392
13:00 25,5 21,8 5,6 SSW 11,1 1012,4 80 - 448
13:05 26,1 21,7 2,1 South 5,6 1012,4 77 - 311
13:10 26,5 22,6 5,8 SW 11,1 1012,4 79 - 824
13:15 26,8 22,4 4,3 West 9,3 1012,4 77 - 817
13:20 27,3 22,4 5,8 West 11,1 1012,4 75 - 816
13:25 27,5 22,7 4,5 SSE 9,3 1012,4 75 - 821
13:30 27,5 22,4 13,8 WNW 20,4 1012,4 74 - 849
13:35 27,4 22,3 10,1 West 22,2 1012,4 74 - 830
13:40 27,2 21,2 8,5 WNW 13,0 1012,4 70 - 810
13:45 27,2 21,7 4,5 WNW 8,0 1012,8 72 - 816
13:50 27,3 21,8 8,4 WNW 16,7 1012,8 72 - 814
13:55 27,2 21,2 9,5 NW 18,5 1012,8 70 - 800
14:00 27,6 21,7 9,7 WNW 16,7 1012,8 70 - 798
14:05 27,3 21,8 15,9 WNW 22,2 1012,8 72 - 789
14:10 27,0 21,3 13,8 NW 20,4 1012,8 71 - 789
14:15 27,5 21,6 4,3 NW 11,1 1012,8 70 - 784
14:20 27,5 21,6 8,5 West 14,8 1013,1 70 - 782
14:25 27,7 21,8 9,2 WSW 16,7 1013,1 70 - 809
14:30 27,4 20,7 5,3 West 13,0 1012,8 67 - 817
14:35 27,3 21,4 16,3 NW 22,2 1012,8 70 - 780
14:40 27,5 21,3 8,9 WNW 18,5 1012,8 69 - 765
14:45 27,0 21,1 7,6 West 13,0 1012,8 70 - 758
14:50 27,1 21,2 8,9 WNW 19,3 1012,8 70 - 752
14:55 27,3 21,4 10,6 West 13,0 1012,8 70 - 745
15:00 27,5 22,0 5,6 WNW 9,3 1012,8 72 - 735
15:05 27,7 22,2 6,0 WNW 13,0 1012,8 72 - 731
15:10 27,6 21,6 9,8 WNW 16,7 1012,8 70 - 719
15:15 27,1 21,4 5,6 WNW 11,1 1012,8 71 - 710
15:20 27,2 21,7 9,5 WNW 18,5 1012,8 72 - 703
15:25 26,8 21,6 6,1 West 12,9 1012,4 73 - 689
15:30 27,1 21,8 6,6 West 14,8 1012,4 73 - 686
15:35 27,3 22,1 5,5 NW 13,0 1012,1 73 - 675
15:40 27,1 21,3 1,9 West 5,6 1012,1 71 - 668
15:45 27,3 22,0 5,3 WNW 8,0 1011,7 73 - 661
15:50 27,3 21,8 3,1 WNW 5,6 1012,1 72 - 650
15:55 27,5 22,2 3,1 West 5,6 1012,1 73 - 636
16:00 27,8 22,7 7,7 WNW 14,5 1012,1 74 - 628
16:05 27,4 21,7 7,2 WNW 13,0 1012,1 71 - 617
16:10 27,7 22,4 2,9 WNW 5,6 1012,1 73 - 589
16:15 27,7 22,2 9,0 West 14,8 1012,1 72 - 550
16:20 27,4 21,9 7,1 WNW 13,0 1012,1 72 - 501
16:25 27,4 21,9 9,8 WNW 14,8 1012,1 72 - 459
16:30 27,4 22,4 5,3 SW 11,1 1012,1 74 - 446
16:35 27,5 22,4 6,9 WNW 14,8 1012,1 74 - 446
16:40 27,3 22,0 2,4 WNW 5,6 1012,4 73 - 464
16:45 27,3 21,8 11,1 WNW 18,5 1012,4 72 - 455
16:50 27,2 21,9 7,2 WNW 16,7 1012,4 73 - 445
16:55 27,2 21,9 10,0 WNW 16,7 1012,4 73 - 422
17:00 27,2 21,9 7,7 WNW 11,1 1012,4 73 - 383
17:05 27,2 21,9 4,2 WNW 5,6 1012,4 73 - 380
17:10 27,3 21,6 3,5 West 5,6 1012,4 71 - 366
17:15 27,1 21,6 2,7 West 6,4 1012,1 72 - 209
17:20 26,9 21,8 2,1 WNW 3,7 1012,1 74 - 183
17:25 27,0 21,9 5,5 West 11,1 1012,1 74 - 239
17:30 26,9 22,1 7,2 WNW 14,8 1012,1 75 - 91
17:35 26,8 22,0 4,0 NW 7,4 1012,4 75 - 113
17:40 26,3 21,8 12,4 WNW 22,2 1012,4 76 - 178
17:45 26,1 21,5 8,0 West 13,0 1012,4 76 - 167
17:50 26,1 21,7 6,0 West 13,0 1012,4 77 - 204
17:55 26,2 21,8 7,1 West 13,0 1012,4 77 - 156
18:00 26,2 21,8 3,1 West 9,7 1012,4 77 - 93
18:05 26,1 21,8 8,2 South 16,7 1012,4 77 - 65
18:10 25,9 21,6 9,5 SSW 20,4 1012,4 77 - 62
18:15 25,9 21,8 6,6 WSW 16,7 1012,1 78 - 62
18:20 25,8 21,3 3,2 WNW 11,1 1012,1 76 - 104
18:25 25,8 21,4 0,2 SSW 3,7 1012,1 77 - 56
18:30 25,6 21,0 1,9 WNW 3,7 1011,7 76 - 49
18:35 25,4 20,8 4,3 South 7,4 1011,4 76 - 51
18:40 25,4 21,1 4,2 SSW 6,4 1011,1 77 - 51
18:45 25,3 20,7 7,2 SSE 11,3 1010,4 76 - 42
18:50 25,1 20,5 3,2 South 5,6 1010,4 76 - 33
18:55 24,9 20,4 3,7 SSW 5,6 1010,4 76 - 33
19:00 24,7 20,4 1,4 SSW 3,7 1010,4 77 - 40
19:05 24,4 20,6 1,3 SSW 3,7 1010,4 79 - 40
19:10 24,2 20,3   Calm   1010,4 79 - 37
19:15 24,0 20,7   Calm   1010,4 82 - 44
19:20 23,8 20,9 1,6 SSW 3,7 1010,0 84 - 44
19:25 24,0 20,9 1,4 SSW 3,7 1010,4 83 - 46
19:30 24,3 20,9 3,4 South 5,6 1010,4 81 - 40
19:35 24,5 20,6 0,6 South 3,7 1010,4 79 - 40
19:40 24,5 20,8   Calm 1,9 1010,4 80 - 32
19:45 24,4 21,1   Calm   1010,7 82 - 23
19:50 24,1 20,8 2,4 South 5,6 1010,7 82 - 16
19:55 24,0 20,7 1,3 South 5,6 1011,1 82 - 11
20:00 23,8 20,5 0,2 South 1,9 1011,1 82 - 9
20:05 23,7 20,6 0,6 South 3,2 1011,4 83 - 7
20:10 23,4 20,4 1,0 South 1,9 1011,1 83 - -
20:15 23,3 20,3   Calm 1,9 1011,1 83 - -
20:20 23,1 20,2 0,2 South 1,9 1011,1 84 - -
20:25 22,9 20,2 2,4 South 5,6 1011,1 85 - -
20:30 22,9 20,3 3,4 South 5,6 1011,1 85 - -
20:35 23,0 20,2 1,4 South 1,9 1011,1 84 - -
20:40 22,9 20,2 2,4 South 3,7 1010,7 85 - -
20:45 22,8 20,1 1,6 South 5,6 1010,7 85 - -
20:50 22,7 19,9 1,0 South 3,7 1010,7 84 - -
20:55 22,8 19,9 3,2 South 5,6 1010,4 84 - -
21:00 22,9 19,8 1,6 South 3,7 1010,4 83 - -
21:05 22,9 19,8   Calm   1010,4 83 - -
21:10 22,6 19,8 1,1 South 1,9 1010,4 84 - -
21:15 22,3 19,7 3,1 South 5,6 1010,4 85 - -
21:20 22,2 19,6 3,1 South 5,6 1010,4 85 - -
21:25 22,3 19,7 2,7 South 3,7 1010,4 85 - -
21:30 22,4 19,8 3,9 South 5,6 1010,4 85 - -
21:35 22,6 19,7 4,2 South 8,0 1010,4 84 - -
21:40 22,6 19,8 4,0 SSE 5,6 1010,4 84 - -
21:45 22,7 19,9 4,3 South 5,6 1010,4 84 - -
21:50 22,8 19,9 1,1 South 3,7 1010,4 84 - -
21:55 22,6 19,9 0,5 South 1,9 1010,4 85 - -
Daily Summary for Sunday Aug 18 2019
Time Temp. ( °C ) Dew pt. ( °C ) Wind ( km/h ) from Gust ( km/h ) Pressure ( hPa ) Humid.( % ) Rainrate ( cm ) Solar ( W/m2 )
High27,8 22,7 16,3 WNW ( 151/562 ) 22,2 1016,1 97 16,26 849
Average22,4 19,9 3,4 Calm #76/264 6,4 1012,4 86 17,78 353 #152/264
Low17,4 16,8 -   0,0 1010,0 67 -  
Daily Tabular details for Sunday Aug 18 2019
Time Temp. ( °C ) Dew pt. ( °C ) Wind ( km/h ) from Gust ( km/h ) Pressure ( hPa ) Humid.( % ) Rainrate ( cm ) Solar ( W/m2 )
00:00 18,8 18,0   Calm   1013,8 95 - -
00:05 18,7 17,9   Calm   1013,8 95 - -
00:10 18,7 18,0   Calm   1013,8 96 - -
00:15 18,6 17,7   Calm   1014,1 95 - -
00:20 18,2 17,4   Calm   1014,1 95 - -
00:25 18,3 17,4   Calm   1014,1 95 - -
00:30 18,1 17,2   Calm   1014,1 95 - -
00:35 18,1 17,4 0,8 South 1,9 1013,8 96 - -
00:40 18,3 17,6   Calm 1,9 1014,1 96 - -
00:45 18,1 17,4   Calm   1014,1 96 - -
00:50 17,9 17,3   Calm   1014,1 96 - -
00:55 17,9 17,3   Calm   1014,1 96 - -
01:00 17,9 17,3   Calm   1014,1 96 - -
01:05 17,8 17,1   Calm   1013,8 96 - -
01:10 17,7 17,0   Calm   1013,8 96 - -
01:15 17,6 16,9   Calm   1013,8 96 - -
01:20 17,7 17,0   Calm   1013,8 96 - -
01:25 17,6 16,9   Calm   1013,8 96 - -
01:30 17,6 16,9   Calm   1013,8 96 - -
01:35 17,5 16,8   Calm   1013,8 96 - -
01:40 17,4 16,8   Calm   1013,8 96 - -
01:45 17,4 16,8   Calm   1013,8 96 - -
01:50 17,4 16,8   Calm   1013,8 96 - -
01:55 17,5 16,8   Calm   1013,8 96 - -
02:00 17,5 16,8   Calm   1013,8 96 - -
02:05 17,5 16,8   Calm   1013,8 96 - -
02:10 17,4 16,8   Calm   1013,8 96 - -
02:15 17,5 16,8   Calm   1013,8 96 - -
02:20 17,4 16,8   Calm   1013,8 96 - -
02:25 17,5 16,8   Calm   1013,8 96 - -
02:30 17,5 16,8   Calm   1013,8 96 - -
02:35 17,6 16,9   Calm   1013,8 96 - -
02:40 17,6 16,9   Calm   1013,8 96 - -
02:45 17,6 16,9   Calm   1013,8 96 - -
02:50 17,6 16,9   Calm   1013,8 96 - -
02:55 17,6 16,9   Calm   1013,8 96 - -
03:00 17,5 16,8   Calm   1014,1 96 - -
03:05 17,9 17,4 0,8 South 1,9 1014,1 97 - -
03:10 18,5 18,0 2,3 SSE 5,6 1014,1 97 - -
03:15 18,8 18,3 1,8 SSE 5,6 1014,1 97 - -
03:20 18,9 18,4   Calm   1014,1 97 - -
03:25 18,9 18,4 1,1 SSE 3,7 1014,1 97 - -
03:30 18,8 18,3   Calm   1014,1 97 - -
03:35 18,9 18,4   Calm   1014,1 97 - -
03:40 18,7 18,2   Calm   1014,1 97 - -
03:45 18,7 18,1   Calm   1014,1 96 - -
03:50 18,7 18,0 0,3 SSE 1,9 1013,8 96 - -
03:55 18,7 18,0   Calm   1014,1 96 - -
04:00 18,7 18,0   Calm   1013,8 96 - -
04:05 18,8 18,1 1,0 SSE 1,9 1013,8 96 - -
04:10 18,8 18,3 0,8 SSE 3,7 1013,8 97 - -
04:15 18,9 18,4 1,6 SSE 3,7 1013,4 97 - -
04:20 18,9 18,4 1,1 SSE 3,7 1013,8 97 - -
04:25 18,8 18,3   Calm   1013,8 97 - -
04:30 18,8 18,3 0,6 SSE 3,7 1013,8 97 - -
04:35 19,1 18,6 0,3 SSE 1,9 1013,4 97 - -
04:40 19,2 18,7 1,0 SSE 3,7 1013,4 97 - -
04:45 19,2 18,7 0,3 SSE 1,9 1013,4 97 - -
04:50 19,1 18,6   Calm   1013,4 97 - -
04:55 18,9 18,4   Calm   1013,4 97 - -
05:00 18,9 18,4   Calm 1,9 1013,4 97 - -
05:05 18,9 18,4   Calm   1013,4 97 - -
05:10 18,9 18,4   Calm   1013,1 97 - -
05:15 18,9 18,4   Calm   1013,1 97 - -
05:20 18,9 18,3   Calm   1013,4 96 - -
05:25 18,9 18,3   Calm   1013,1 96 - -
05:30 18,9 18,4   Calm   1013,1 97 - -
05:35 18,9 18,4   Calm   1013,1 97 - -
05:40 18,9 18,2   Calm   1013,1 96 - -
05:45 18,8 18,3   Calm   1013,4 97 - -
05:50 18,8 18,3   Calm   1013,4 97 - -
05:55 18,7 18,2   Calm   1013,1 97 - -
06:00 18,8 18,3 5,0 SE 7,4 1013,1 97 - -
06:05 18,8 18,3 0,6 SE 3,7 1013,4 97 - -
06:10 18,9 18,4   Calm   1013,4 97 - -
06:15 18,9 18,3   Calm   1013,8 96 - -
06:20 19,0 18,3   Calm   1013,8 96 - -
06:25 19,1 18,4   Calm   1014,1 96 - -
06:30 19,1 18,4   Calm   1014,1 96 - -
06:35 19,1 18,6 0,2 SE 1,9 1014,4 97 - -
06:40 19,2 18,7 1,1 SE 3,7 1014,4 97 - -
06:45 19,2 18,7   Calm   1014,4 97 0,25 -
06:50 19,3 18,8 1,9 SE 3,7 1014,8 97 0,25 -
06:55 19,3 18,8 2,6 SE 3,7 1014,8 97 0,51 -
07:00 19,3 18,8 0,3 East 1,9 1015,5 97 1,02 -
07:05 19,4 18,9 8,5 WNW 13,0 1016,1 97 3,05 -
07:10 19,6 19,1 8,2 NNW 13,0 1015,8 97 9,91 -
07:15 19,6 19,1 4,7 NNE 8,0 1015,5 97 14,73 -
07:20 19,7 19,2   Calm   1014,1 97 16,00 -
07:25 19,7 19,2 2,4 East 5,6 1014,1 97 16,00 -
07:30 19,7 19,2 1,4 South 3,7 1014,1 97 16,26 5
07:35 19,7 19,2 0,6 South 1,9 1014,1 97 16,26 11
07:40 19,7 19,2   Calm   1014,1 97 16,26 12
07:45 19,6 19,1   Calm   1014,1 97 16,26 14
07:50 19,6 19,1   Calm   1013,8 97 16,26 18
07:55 19,6 19,1   Calm   1013,8 97 16,00 25
08:00 19,6 19,1   Calm   1013,4 97 15,49 40
08:05 19,7 19,2 2,9 SSE 5,6 1013,8 97 13,46 63
08:10 19,7 19,2 6,0 SE 11,1 1013,4 97 6,60 93
08:15 19,7 19,2 7,6 ESE 13,0 1013,4 97 1,78 113
08:20 19,8 19,3 12,2 SSE 18,5 1013,8 97 0,51 123
08:25 19,9 19,4 9,5 SSW 14,8 1013,8 97 0,51 156
08:30 20,2 19,7 5,6 ESE 18,5 1013,4 97 0,25 186
08:35 20,3 19,8 8,4 SSE 11,1 1013,8 97 0,25 181
08:40 20,4 19,9 7,9 SSE 16,7 1013,4 97 0,25 250
08:45 20,5 20,0 7,6 SSE 11,1 1013,8 97 - 132
08:50 20,6 20,1 2,6 South 5,6 1013,4 97 - 132
08:55 20,6 19,9 4,2 South 5,6 1013,8 96 - 236
09:00 20,8 20,2 4,3 SSE 7,4 1013,8 96 - 221
09:05 21,2 20,5 6,9 SSE 14,8 1013,4 96 - 422
09:10 21,4 20,8 4,5 SSE 5,6 1013,4 96 - 383
09:15 21,8 21,1 4,0 SSE 9,3 1013,8 96 - 373
09:20 22,0 21,2 5,5 SSE 7,4 1013,8 95 - 392
09:25 22,3 21,3 5,5 SSE 9,3 1013,8 94 - 352
09:30 22,3 20,9 9,3 SSE 13,0 1013,4 92 - 483
09:35 22,7 21,2 9,8 SSE 14,8 1013,8 91 - 534
09:40 23,2 21,5 5,5 South 9,3 1013,8 90 - 262
09:45 22,8 20,7 7,1 South 13,0 1013,8 88 - 232
09:50 22,8 20,7 5,6 South 9,3 1013,4 88 - 283
09:55 23,1 21,0 5,1 South 13,0 1013,1 88 - 360
10:00 23,8 21,7 8,0 SSW 13,0 1013,1 88 - 696
10:05 23,8 21,1 8,9 ESE 13,0 1012,8 85 - 492
10:10 23,7 21,0 6,1 SSE 9,3 1012,1 85 - 297
10:15 23,6 21,1 4,2 ESE 7,4 1012,1 86 - 248
10:20 23,6 21,3 4,0 SSE 7,4 1012,4 87 - 230
10:25 23,6 21,3 5,6 SSE 9,7 1012,8 87 - 216
10:30 23,6 21,3 11,9 SSE 18,5 1012,8 87 - 218
10:35 23,5 21,0 8,7 South 16,7 1012,8 86 - 236
10:40 23,4 20,8 7,9 South 9,3 1012,8 85 - 257
10:45 23,4 20,7 2,9 South 5,6 1012,8 85 - 283
10:50 23,4 20,7 10,9 SW 18,5 1012,8 85 - 292
10:55 23,3 20,2 9,0 South 13,0 1012,8 83 - 276
11:00 23,3 20,3 6,4 South 9,3 1012,8 83 - 276
11:05 23,4 20,6 2,3 SSW 6,4 1012,8 84 - 281
11:10 23,4 20,4 2,7 SSW 5,6 1012,8 83 - 279
11:15 23,5 20,4 0,2 SSW 1,9 1013,1 83 - 295
11:20 23,7 20,6 3,7 SSW 5,6 1013,4 83 - 366
11:25 24,0 20,9 1,9 West 5,6 1013,4 83 - 371
11:30 24,2 21,2 6,9 SSW 13,0 1013,4 83 - 336
11:35 24,2 20,7 1,9 SW 5,6 1013,4 81 - 373
11:40 24,3 21,1 4,0 South 7,4 1013,4 82 - 422
11:45 24,6 21,1 1,3 SW 3,7 1013,4 81 - 330
11:50 24,6 21,5 1,8 WSW 5,6 1013,8 83 - 288
11:55 24,4 20,9 3,7 SE 7,4 1013,8 81 - 366
12:00 24,6 21,3 4,5 WSW 11,1 1013,8 82 - 432
12:05 24,7 21,4 0,3 SSW 1,9 1013,8 82 - 369
12:10 24,6 20,9 3,7 SSW 7,4 1013,4 80 - 190
12:15 24,3 20,8 4,2 South 5,6 1013,4 81 - 153
12:20 24,1 21,0 3,1 South 7,4 1013,4 83 - 169
12:25 24,0 20,9 2,6 SSW 3,7 1013,4 83 - 179
12:30 24,1 21,2 4,2 SSW 5,6 1013,4 84 - 221
12:35 24,3 21,4 1,1 WSW 3,7 1013,4 84 - 223
12:40 24,3 21,2 1,0 SSW 3,7 1013,1 83 - 244
12:45 24,6 21,7 1,9 South 4,8 1012,8 84 - 371
12:50 24,8 21,6 4,7 South 5,6 1012,4 82 - 490
12:55 25,2 21,7 5,1 SSE 7,4 1012,4 81 - 392
13:00 25,5 21,8 5,6 SSW 11,1 1012,4 80 - 448
13:05 26,1 21,7 2,1 South 5,6 1012,4 77 - 311
13:10 26,5 22,6 5,8 SW 11,1 1012,4 79 - 824
13:15 26,8 22,4 4,3 West 9,3 1012,4 77 - 817
13:20 27,3 22,4 5,8 West 11,1 1012,4 75 - 816
13:25 27,5 22,7 4,5 SSE 9,3 1012,4 75 - 821
13:30 27,5 22,4 13,8 WNW 20,4 1012,4 74 - 849
13:35 27,4 22,3 10,1 West 22,2 1012,4 74 - 830
13:40 27,2 21,2 8,5 WNW 13,0 1012,4 70 - 810
13:45 27,2 21,7 4,5 WNW 8,0 1012,8 72 - 816
13:50 27,3 21,8 8,4 WNW 16,7 1012,8 72 - 814
13:55 27,2 21,2 9,5 NW 18,5 1012,8 70 - 800
14:00 27,6 21,7 9,7 WNW 16,7 1012,8 70 - 798
14:05 27,3 21,8 15,9 WNW 22,2 1012,8 72 - 789
14:10 27,0 21,3 13,8 NW 20,4 1012,8 71 - 789
14:15 27,5 21,6 4,3 NW 11,1 1012,8 70 - 784
14:20 27,5 21,6 8,5 West 14,8 1013,1 70 - 782
14:25 27,7 21,8 9,2 WSW 16,7 1013,1 70 - 809
14:30 27,4 20,7 5,3 West 13,0 1012,8 67 - 817
14:35 27,3 21,4 16,3 NW 22,2 1012,8 70 - 780
14:40 27,5 21,3 8,9 WNW 18,5 1012,8 69 - 765
14:45 27,0 21,1 7,6 West 13,0 1012,8 70 - 758
14:50 27,1 21,2 8,9 WNW 19,3 1012,8 70 - 752
14:55 27,3 21,4 10,6 West 13,0 1012,8 70 - 745
15:00 27,5 22,0 5,6 WNW 9,3 1012,8 72 - 735
15:05 27,7 22,2 6,0 WNW 13,0 1012,8 72 - 731
15:10 27,6 21,6 9,8 WNW 16,7 1012,8 70 - 719
15:15 27,1 21,4 5,6 WNW 11,1 1012,8 71 - 710
15:20 27,2 21,7 9,5 WNW 18,5 1012,8 72 - 703
15:25 26,8 21,6 6,1 West 12,9 1012,4 73 - 689
15:30 27,1 21,8 6,6 West 14,8 1012,4 73 - 686
15:35 27,3 22,1 5,5 NW 13,0 1012,1 73 - 675
15:40 27,1 21,3 1,9 West 5,6 1012,1 71 - 668
15:45 27,3 22,0 5,3 WNW 8,0 1011,7 73 - 661
15:50 27,3 21,8 3,1 WNW 5,6 1012,1 72 - 650
15:55 27,5 22,2 3,1 West 5,6 1012,1 73 - 636
16:00 27,8 22,7 7,7 WNW 14,5 1012,1 74 - 628
16:05 27,4 21,7 7,2 WNW 13,0 1012,1 71 - 617
16:10 27,7 22,4 2,9 WNW 5,6 1012,1 73 - 589
16:15 27,7 22,2 9,0 West 14,8 1012,1 72 - 550
16:20 27,4 21,9 7,1 WNW 13,0 1012,1 72 - 501
16:25 27,4 21,9 9,8 WNW 14,8 1012,1 72 - 459
16:30 27,4 22,4 5,3 SW 11,1 1012,1 74 - 446
16:35 27,5 22,4 6,9 WNW 14,8 1012,1 74 - 446
16:40 27,3 22,0 2,4 WNW 5,6 1012,4 73 - 464
16:45 27,3 21,8 11,1 WNW 18,5 1012,4 72 - 455
16:50 27,2 21,9 7,2 WNW 16,7 1012,4 73 - 445
16:55 27,2 21,9 10,0 WNW 16,7 1012,4 73 - 422
17:00 27,2 21,9 7,7 WNW 11,1 1012,4 73 - 383
17:05 27,2 21,9 4,2 WNW 5,6 1012,4 73 - 380
17:10 27,3 21,6 3,5 West 5,6 1012,4 71 - 366
17:15 27,1 21,6 2,7 West 6,4 1012,1 72 - 209
17:20 26,9 21,8 2,1 WNW 3,7 1012,1 74 - 183
17:25 27,0 21,9 5,5 West 11,1 1012,1 74 - 239
17:30 26,9 22,1 7,2 WNW 14,8 1012,1 75 - 91
17:35 26,8 22,0 4,0 NW 7,4 1012,4 75 - 113
17:40 26,3 21,8 12,4 WNW 22,2 1012,4 76 - 178
17:45 26,1 21,5 8,0 West 13,0 1012,4 76 - 167
17:50 26,1 21,7 6,0 West 13,0 1012,4 77 - 204
17:55 26,2 21,8 7,1 West 13,0 1012,4 77 - 156
18:00 26,2 21,8 3,1 West 9,7 1012,4 77 - 93
18:05 26,1 21,8 8,2 South 16,7 1012,4 77 - 65
18:10 25,9 21,6 9,5 SSW 20,4 1012,4 77 - 62
18:15 25,9 21,8 6,6 WSW 16,7 1012,1 78 - 62
18:20 25,8 21,3 3,2 WNW 11,1 1012,1 76 - 104
18:25 25,8 21,4 0,2 SSW 3,7 1012,1 77 - 56
18:30 25,6 21,0 1,9 WNW 3,7 1011,7 76 - 49
18:35 25,4 20,8 4,3 South 7,4 1011,4 76 - 51
18:40 25,4 21,1 4,2 SSW 6,4 1011,1 77 - 51
18:45 25,3 20,7 7,2 SSE 11,3 1010,4 76 - 42
18:50 25,1 20,5 3,2 South 5,6 1010,4 76 - 33
18:55 24,9 20,4 3,7 SSW 5,6 1010,4 76 - 33
19:00 24,7 20,4 1,4 SSW 3,7 1010,4 77 - 40
19:05 24,4 20,6 1,3 SSW 3,7 1010,4 79 - 40
19:10 24,2 20,3   Calm   1010,4 79 - 37
19:15 24,0 20,7   Calm   1010,4 82 - 44
19:20 23,8 20,9 1,6 SSW 3,7 1010,0 84 - 44
19:25 24,0 20,9 1,4 SSW 3,7 1010,4 83 - 46
19:30 24,3 20,9 3,4 South 5,6 1010,4 81 - 40
19:35 24,5 20,6 0,6 South 3,7 1010,4 79 - 40
19:40 24,5 20,8   Calm 1,9 1010,4 80 - 32
19:45 24,4 21,1   Calm   1010,7 82 - 23
19:50 24,1 20,8 2,4 South 5,6 1010,7 82 - 16
19:55 24,0 20,7 1,3 South 5,6 1011,1 82 - 11
20:00 23,8 20,5 0,2 South 1,9 1011,1 82 - 9
20:05 23,7 20,6 0,6 South 3,2 1011,4 83 - 7
20:10 23,4 20,4 1,0 South 1,9 1011,1 83 - -
20:15 23,3 20,3   Calm 1,9 1011,1 83 - -
20:20 23,1 20,2 0,2 South 1,9 1011,1 84 - -
20:25 22,9 20,2 2,4 South 5,6 1011,1 85 - -
20:30 22,9 20,3 3,4 South 5,6 1011,1 85 - -
20:35 23,0 20,2 1,4 South 1,9 1011,1 84 - -
20:40 22,9 20,2 2,4 South 3,7 1010,7 85 - -
20:45 22,8 20,1 1,6 South 5,6 1010,7 85 - -
20:50 22,7 19,9 1,0 South 3,7 1010,7 84 - -
20:55 22,8 19,9 3,2 South 5,6 1010,4 84 - -
21:00 22,9 19,8 1,6 South 3,7 1010,4 83 - -
21:05 22,9 19,8   Calm   1010,4 83 - -
21:10 22,6 19,8 1,1 South 1,9 1010,4 84 - -
21:15 22,3 19,7 3,1 South 5,6 1010,4 85 - -
21:20 22,2 19,6 3,1 South 5,6 1010,4 85 - -
21:25 22,3 19,7 2,7 South 3,7 1010,4 85 - -
21:30 22,4 19,8 3,9 South 5,6 1010,4 85 - -
21:35 22,6 19,7 4,2 South 8,0 1010,4 84 - -
21:40 22,6 19,8 4,0 SSE 5,6 1010,4 84 - -
21:45 22,7 19,9 4,3 South 5,6 1010,4 84 - -
21:50 22,8 19,9 1,1 South 3,7 1010,4 84 - -
21:55 22,6 19,9 0,5 South 1,9 1010,4 85 - -

Download your copy of this data-set  here

Our weather-data as stored at Weather Underground. Script developed by Jim McMurry. Adapted for the template by Leuven-Template.eu